,,,PA_Meas_PMT16A,,PR_Meas_QMR101_102,,RH_Meas_QMH101,,SR_Meas_QMS101,,TA_Meas_QMH101,,GenWind,,GenWind,
date,time,status,PA,status,PR,status,RH,status,SR,status,TA,status,DirAvg,status,SpdAvg,
2011-04-10, 00:00:04,VALID,1012.1,VALID,0,VALID,101.072,VALID,0,VALID,24.3761,VALID,323,VALID,0,
2011-04-10, 00:01:04,VALID,1012.1,VALID,0,VALID,101.125,VALID,0,VALID,24.3547,VALID,323,VALID,0,
2011-04-10, 00:02:04,VALID,1012.07,VALID,0,VALID,101.194,VALID,0,VALID,24.3566,VALID,323,VALID,0,
2011-04-10, 00:03:04,VALID,1012.08,VALID,0,VALID,101.209,VALID,0,VALID,24.3352,VALID,323,VALID,0,
2011-04-10, 00:04:04,VALID,1012.06,VALID,0,VALID,101.27,VALID,0,VALID,24.3352,VALID,323,VALID,0,
2011-04-10, 00:05:04,VALID,1012.06,VALID,0,VALID,101.293,VALID,0,VALID,24.3352,VALID,323,VALID,0,
2011-04-10, 00:06:04,VALID,1012.07,VALID,0,VALID,101.369,VALID,0,VALID,24.3761,VALID,323,VALID,0,
2011-04-10, 00:07:04,VALID,1012.06,VALID,0,VALID,101.445,VALID,0,VALID,24.3566,VALID,323,VALID,0,
2011-04-10, 00:08:04,VALID,1012.05,VALID,0,VALID,101.545,VALID,0,VALID,24.3352,VALID,323,VALID,0,
2011-04-10, 00:09:04,VALID,1012.03,VALID,0,VALID,101.575,VALID,0,VALID,24.3352,VALID,323,VALID,0,
2011-04-10, 00:10:04,VALID,1012.03,VALID,0,VALID,101.545,VALID,0,VALID,24.3566,VALID,323,VALID,0,
2011-04-10, 00:11:04,VALID,1012.03,VALID,0,VALID,101.423,VALID,0,VALID,24.3761,VALID,323,VALID,0,
2011-04-10, 00:12:04,VALID,1012.03,VALID,0,VALID,101.423,VALID,0,VALID,24.3761,VALID,323,VALID,0,
2011-04-10, 00:13:04,VALID,1012.01,VALID,0,VALID,101.438,VALID,0,VALID,24.3742,VALID,323,VALID,0,
2011-04-10, 00:14:04,VALID,1012,VALID,0,VALID,101.545,VALID,0,VALID,24.3742,VALID,323,VALID,0,
2011-04-10, 00:15:04,VALID,1012.02,VALID,0,VALID,101.567,VALID,0,VALID,24.3956,VALID,323,VALID,0,
2011-04-10, 00:16:04,VALID,1012.02,VALID,0,VALID,101.583,VALID,0,VALID,24.3742,VALID,323,VALID,0,
2011-04-10, 00:17:04,VALID,1012,VALID,0,VALID,101.598,VALID,0,VALID,24.3761,VALID,323,VALID,0,
2011-04-10, 00:18:04,VALID,1011.99,VALID,0,VALID,101.621,VALID,0,VALID,24.3547,VALID,323,VALID,0,
2011-04-10, 00:19:04,VALID,1012.01,VALID,0,VALID,101.636,VALID,0,VALID,24.3547,VALID,323,VALID,0.144531,
2011-04-10, 00:20:04,VALID,1012.01,VALID,0,VALID,101.667,VALID,0,VALID,24.3761,VALID,323,VALID,0,
2011-04-10, 00:21:04,VALID,1012.01,VALID,0,VALID,101.659,VALID,0,VALID,24.3547,VALID,323,VALID,0,
2011-04-10, 00:22:04,VALID,1012.03,VALID,0,VALID,101.636,VALID,0,VALID,24.3761,VALID,323,VALID,0,
2011-04-10, 00:23:04,VALID,1012.04,VALID,0,VALID,101.705,VALID,0,VALID,24.3566,VALID,323,VALID,0,
2011-04-10, 00:24:04,VALID,1012.02,VALID,0,VALID,101.804,VALID,0,VALID,24.3371,VALID,323,VALID,0,
2011-04-10, 00:25:04,VALID,1011.99,VALID,0,VALID,101.827,VALID,0,VALID,24.3158,VALID,323,VALID,0,
2011-04-10, 00:26:04,VALID,1011.98,VALID,0,VALID,101.842,VALID,0.105969,VALID,24.2963,VALID,323,VALID,0,
2011-04-10, 00:27:04,VALID,1011.95,VALID,0,VALID,101.827,VALID,0,VALID,24.2786,VALID,323,VALID,0,
2011-04-10, 00:28:04,VALID,1011.93,VALID,0,VALID,101.888,VALID,0,VALID,24.2786,VALID,323,VALID,0,
2011-04-10, 00:29:04,VALID,1011.91,VALID,0,VALID,102.01,VALID,0,VALID,24.2378,VALID,323,VALID,0,
2011-04-10, 00:30:04,VALID,1011.89,VALID,0,VALID,102.071,VALID,0,VALID,24.2591,VALID,323,VALID,0,
2011-04-10, 00:31:04,VALID,1011.88,VALID,0,VALID,102.086,VALID,0,VALID,24.2396,VALID,323,VALID,0,
2011-04-10, 00:32:04,VALID,1011.88,VALID,0,VALID,102.063,VALID,0,VALID,24.2396,VALID,323,VALID,0,
2011-04-10, 00:33:04,VALID,1011.88,VALID,0,VALID,102.109,VALID,0,VALID,24.2183,VALID,323,VALID,0,
2011-04-10, 00:34:04,VALID,1011.88,VALID,0,VALID,102.185,VALID,0,VALID,24.1793,VALID,323,VALID,0,
2011-04-10, 00:35:04,VALID,1011.88,VALID,0,VALID,102.216,VALID,0,VALID,24.2007,VALID,323,VALID,0,
2011-04-10, 00:36:04,VALID,1011.9,VALID,0,VALID,102.299,VALID,0.105969,VALID,24.1599,VALID,323,VALID,0,
2011-04-10, 00:37:04,VALID,1011.89,VALID,0,VALID,102.345,VALID,0,VALID,24.1812,VALID,323,VALID,0,
2011-04-10, 00:38:04,VALID,1011.88,VALID,0,VALID,102.376,VALID,0.105969,VALID,24.1599,VALID,323,VALID,0,
2011-04-10, 00:39:04,VALID,1011.89,VALID,0,VALID,102.437,VALID,0,VALID,24.1812,VALID,323,VALID,0,
2011-04-10, 00:40:04,VALID,1011.88,VALID,0,VALID,102.444,VALID,0,VALID,24.1812,VALID,323,VALID,0,
2011-04-10, 00:41:04,VALID,1011.85,VALID,0,VALID,102.46,VALID,0,VALID,24.1793,VALID,323,VALID,0,
2011-04-10, 00:42:04,VALID,1011.83,VALID,0,VALID,102.521,VALID,0,VALID,24.1988,VALID,323,VALID,0,
2011-04-10, 00:43:04,VALID,1011.82,VALID,0,VALID,102.551,VALID,0,VALID,24.1988,VALID,323,VALID,0,
2011-04-10, 00:44:04,VALID,1011.8,VALID,0,VALID,102.559,VALID,0,VALID,24.1988,VALID,323,VALID,0,
2011-04-10, 00:45:04,VALID,1011.81,VALID,0,VALID,102.559,VALID,0.105969,VALID,24.2202,VALID,323,VALID,0,
2011-04-10, 00:46:04,VALID,1011.81,VALID,0,VALID,102.658,VALID,0,VALID,24.2591,VALID,323,VALID,0,
2011-04-10, 00:47:04,VALID,1011.79,VALID,0,VALID,102.734,VALID,0,VALID,24.2591,VALID,323,VALID,0,
2011-04-10, 00:48:04,VALID,1011.78,VALID,0,VALID,102.727,VALID,0,VALID,24.2786,VALID,323,VALID,0,
2011-04-10, 00:49:04,VALID,1011.8,VALID,0,VALID,102.704,VALID,0,VALID,24.2981,VALID,323,VALID,0,
2011-04-10, 00:50:04,VALID,1011.77,VALID,0,VALID,102.635,VALID,0,VALID,24.2768,VALID,323,VALID,0,
2011-04-10, 00:51:04,VALID,1011.74,VALID,0,VALID,102.46,VALID,0,VALID,24.2981,VALID,323,VALID,0,
2011-04-10, 00:52:04,VALID,1011.73,VALID,0,VALID,102.238,VALID,0,VALID,24.2573,VALID,323,VALID,0,
2011-04-10, 00:53:04,VALID,1011.7,VALID,0,VALID,101.987,VALID,0,VALID,24.2768,VALID,323,VALID,0.380078,
2011-04-10, 00:54:04,VALID,1011.74,VALID,0,VALID,101.834,VALID,0,VALID,24.2768,VALID,323,VALID,0.244141,
2011-04-10, 00:55:04,VALID,1011.71,VALID,0,VALID,101.918,VALID,0,VALID,24.3176,VALID,323,VALID,0.0851562,
2011-04-10, 00:56:04,VALID,1011.71,VALID,0,VALID,101.926,VALID,0,VALID,24.3176,VALID,323,VALID,0,
2011-04-10, 00:57:04,VALID,1011.74,VALID,0,VALID,101.979,VALID,0,VALID,24.3176,VALID,323,VALID,0,
2011-04-10, 00:58:04,VALID,1011.71,VALID,0,VALID,102.155,VALID,0,VALID,24.3176,VALID,323,VALID,0,
2011-04-10, 00:59:04,VALID,1011.69,VALID,0,VALID,102.101,VALID,0,VALID,24.2981,VALID,323,VALID,0,
2011-04-10, 01:00:04,VALID,1011.68,VALID,0,VALID,101.933,VALID,0,VALID,24.2591,VALID,323,VALID,0,
2011-04-10, 01:01:04,VALID,1011.69,VALID,0,VALID,101.857,VALID,0,VALID,24.2591,VALID,323,VALID,0,
2011-04-10, 01:02:04,VALID,1011.67,VALID,0,VALID,101.956,VALID,0,VALID,24.2981,VALID,323,VALID,0,
2011-04-10, 01:03:04,VALID,1011.67,VALID,0,VALID,101.972,VALID,0,VALID,24.2573,VALID,323,VALID,0,
2011-04-10, 01:04:04,VALID,1011.65,VALID,0,VALID,102.048,VALID,0,VALID,24.2768,VALID,323,VALID,0,
2011-04-10, 01:05:04,VALID,1011.66,VALID,0,VALID,102.071,VALID,0,VALID,24.3176,VALID,323,VALID,0,
2011-04-10, 01:06:04,VALID,1011.62,VALID,0,VALID,102.116,VALID,0,VALID,24.3176,VALID,323,VALID,0,
2011-04-10, 01:07:04,VALID,1011.65,VALID,0,VALID,102.101,VALID,0,VALID,24.3176,VALID,323,VALID,0,
2011-04-10, 01:08:04,VALID,1011.63,VALID,0,VALID,101.933,VALID,0,VALID,24.3371,VALID,323,VALID,0,
2011-04-10, 01:09:04,VALID,1011.63,VALID,0,VALID,102.01,VALID,0,VALID,24.3371,VALID,323,VALID,0,
2011-04-10, 01:10:04,VALID,1011.6,VALID,0,VALID,101.994,VALID,0,VALID,24.3566,VALID,323,VALID,0,
2011-04-10, 01:11:04,VALID,1011.58,VALID,0,VALID,102.01,VALID,0,VALID,24.3742,VALID,323,VALID,0,
2011-04-10, 01:12:04,VALID,1011.58,VALID,0,VALID,102.002,VALID,0,VALID,24.415,VALID,323,VALID,0,
2011-04-10, 01:13:04,VALID,1011.59,VALID,0,VALID,102.109,VALID,0,VALID,24.4345,VALID,323,VALID,0,
2011-04-10, 01:14:04,VALID,1011.56,VALID,0,VALID,101.903,VALID,0,VALID,24.415,VALID,323,VALID,0,
2011-04-10, 01:15:04,VALID,1011.56,VALID,0,VALID,101.75,VALID,0,VALID,24.415,VALID,323,VALID,0,
2011-04-10, 01:16:04,VALID,1011.57,VALID,0,VALID,101.689,VALID,0,VALID,24.4345,VALID,323,VALID,0,
2011-04-10, 01:17:04,VALID,1011.54,VALID,0,VALID,101.75,VALID,0,VALID,24.454,VALID,323,VALID,0,
2011-04-10, 01:18:04,VALID,1011.53,VALID,0,VALID,101.789,VALID,0,VALID,24.4754,VALID,323,VALID,0,
2011-04-10, 01:19:04,VALID,1011.53,VALID,0,VALID,101.85,VALID,0,VALID,24.4735,VALID,323,VALID,0,
2011-04-10, 01:20:04,VALID,1011.54,VALID,0,VALID,101.705,VALID,0,VALID,24.4522,VALID,323,VALID,0,
2011-04-10, 01:21:04,VALID,1011.53,VALID,0,VALID,101.606,VALID,0,VALID,24.4522,VALID,323,VALID,0,
2011-04-10, 01:22:04,VALID,1011.49,VALID,0,VALID,101.537,VALID,0,VALID,24.4522,VALID,323,VALID,0,
2011-04-10, 01:23:04,VALID,1011.52,VALID,0,VALID,101.514,VALID,0,VALID,24.4735,VALID,323,VALID,0,
2011-04-10, 01:24:04,VALID,1011.5,VALID,0,VALID,101.407,VALID,0,VALID,24.4735,VALID,323,VALID,0,
2011-04-10, 01:25:04,VALID,1011.52,VALID,0,VALID,101.362,VALID,0,VALID,24.493,VALID,323,VALID,0,
2011-04-10, 01:26:04,VALID,1011.53,VALID,0,VALID,101.301,VALID,0,VALID,24.4735,VALID,323,VALID,0,
2011-04-10, 01:27:04,VALID,1011.52,VALID,0,VALID,101.392,VALID,0,VALID,24.4735,VALID,323,VALID,0,
2011-04-10, 01:28:04,VALID,1011.52,VALID,0,VALID,101.438,VALID,0,VALID,24.4735,VALID,323,VALID,0,
2011-04-10, 01:29:04,VALID,1011.52,VALID,0,VALID,101.468,VALID,0,VALID,24.4735,VALID,323,VALID,0,
2011-04-10, 01:30:04,VALID,1011.48,VALID,0,VALID,101.484,VALID,0,VALID,24.4735,VALID,323,VALID,0,
2011-04-10, 01:31:04,VALID,1011.45,VALID,0,VALID,101.56,VALID,0,VALID,24.454,VALID,323,VALID,0.403125,
2011-04-10, 01:32:04,VALID,1011.46,VALID,0,VALID,101.407,VALID,0,VALID,24.415,VALID,323,VALID,0.500391,
2011-04-10, 01:33:04,VALID,1011.43,VALID,0,VALID,101.339,VALID,0,VALID,24.415,VALID,323,VALID,0.520703,
2011-04-10, 01:34:04,VALID,1011.44,VALID,0,VALID,101.362,VALID,0,VALID,24.3956,VALID,323,VALID,0.29375,
2011-04-10, 01:35:04,VALID,1011.44,VALID,0,VALID,101.552,VALID,0,VALID,24.3956,VALID,323,VALID,0.113281,
2011-04-10, 01:36:04,VALID,1011.42,VALID,0,VALID,101.613,VALID,0,VALID,24.3761,VALID,323,VALID,0.0347656,
2011-04-10, 01:37:04,VALID,1011.43,VALID,0,VALID,101.621,VALID,0,VALID,24.3371,VALID,323,VALID,0,
2011-04-10, 01:38:04,VALID,1011.42,VALID,0,VALID,101.659,VALID,0,VALID,24.2963,VALID,323,VALID,0,
2011-04-10, 01:39:04,VALID,1011.44,VALID,0,VALID,101.758,VALID,0,VALID,24.2981,VALID,323,VALID,0,
2011-04-10, 01:40:04,VALID,1011.41,VALID,0,VALID,101.789,VALID,0,VALID,24.2981,VALID,323,VALID,0,
2011-04-10, 01:41:04,VALID,1011.4,VALID,0,VALID,101.819,VALID,0,VALID,24.2768,VALID,323,VALID,0,
2011-04-10, 01:42:04,VALID,1011.39,VALID,0,VALID,102.01,VALID,0,VALID,24.3176,VALID,323,VALID,0,
2011-04-10, 01:43:04,VALID,1011.36,VALID,0,VALID,102.139,VALID,0,VALID,24.3176,VALID,323,VALID,0,
2011-04-10, 01:44:04,VALID,1011.39,VALID,0,VALID,102.246,VALID,0,VALID,24.3176,VALID,323,VALID,0,
2011-04-10, 01:45:04,VALID,1011.37,VALID,0,VALID,102.254,VALID,0,VALID,24.2981,VALID,323,VALID,0,
2011-04-10, 01:46:04,VALID,1011.41,VALID,0,VALID,102.246,VALID,0,VALID,24.2981,VALID,323,VALID,0,
2011-04-10, 01:47:04,VALID,1011.39,VALID,0,VALID,102.315,VALID,0,VALID,24.3176,VALID,323,VALID,0,
2011-04-10, 01:48:04,VALID,1011.37,VALID,0,VALID,102.368,VALID,0,VALID,24.3158,VALID,323,VALID,0,
2011-04-10, 01:49:05,VALID,1011.36,VALID,0,VALID,102.414,VALID,0,VALID,24.3371,VALID,323,VALID,0,
2011-04-10, 01:50:05,VALID,1011.33,VALID,0,VALID,102.414,VALID,0,VALID,24.3371,VALID,323,VALID,0,
2011-04-10, 01:51:05,VALID,1011.32,VALID,0,VALID,102.391,VALID,0,VALID,24.3371,VALID,323,VALID,0,
2011-04-10, 01:52:05,VALID,1011.3,VALID,0,VALID,102.383,VALID,0,VALID,24.3371,VALID,323,VALID,0,
2011-04-10, 01:53:05,VALID,1011.31,VALID,0,VALID,102.429,VALID,0,VALID,24.3352,VALID,323,VALID,0,
2011-04-10, 01:54:05,VALID,1011.32,VALID,0,VALID,102.421,VALID,0,VALID,24.3566,VALID,323,VALID,0,
2011-04-10, 01:55:05,VALID,1011.31,VALID,0,VALID,102.33,VALID,0,VALID,24.3352,VALID,323,VALID,0,
2011-04-10, 01:56:05,VALID,1011.3,VALID,0,VALID,102.261,VALID,0,VALID,24.3371,VALID,323,VALID,0,
2011-04-10, 01:57:05,VALID,1011.33,VALID,0,VALID,102.132,VALID,0,VALID,24.3158,VALID,323,VALID,0.303516,
2011-04-10, 01:58:05,VALID,1011.3,VALID,0,VALID,102.025,VALID,0,VALID,24.3176,VALID,323,VALID,0.254297,
2011-04-10, 01:59:05,VALID,1011.26,VALID,0,VALID,101.964,VALID,0,VALID,24.2768,VALID,323,VALID,0,
2011-04-10, 02:00:05,VALID,1011.23,VALID,0,VALID,101.941,VALID,0,VALID,24.2768,VALID,323,VALID,0,
2011-04-10, 02:01:05,VALID,1011.22,VALID,0,VALID,101.979,VALID,0,VALID,24.2786,VALID,323,VALID,0,
2011-04-10, 02:02:05,VALID,1011.2,VALID,0,VALID,102.063,VALID,0,VALID,24.2786,VALID,323,VALID,0,
2011-04-10, 02:03:05,VALID,1011.21,VALID,0,VALID,102.17,VALID,0,VALID,24.2573,VALID,323,VALID,0,
2011-04-10, 02:04:05,VALID,1011.18,VALID,0,VALID,102.231,VALID,0,VALID,24.2591,VALID,323,VALID,0,
2011-04-10, 02:05:05,VALID,1011.15,VALID,0,VALID,102.299,VALID,0,VALID,24.2183,VALID,323,VALID,0,
2011-04-10, 02:06:05,VALID,1011.13,VALID,0,VALID,102.338,VALID,0,VALID,24.2396,VALID,323,VALID,0,
2011-04-10, 02:07:05,VALID,1011.15,VALID,0,VALID,102.391,VALID,0,VALID,24.2202,VALID,323,VALID,0,
2011-04-10, 02:08:05,VALID,1011.12,VALID,0,VALID,102.46,VALID,0,VALID,24.2202,VALID,323,VALID,0,
2011-04-10, 02:09:05,VALID,1011.1,VALID,0,VALID,102.498,VALID,0,VALID,24.2202,VALID,323,VALID,0,
2011-04-10, 02:10:05,VALID,1011.11,VALID,0,VALID,102.536,VALID,0,VALID,24.1988,VALID,323,VALID,0,
2011-04-10, 02:11:05,VALID,1011.1,VALID,0,VALID,102.551,VALID,0,VALID,24.2007,VALID,323,VALID,0,
2011-04-10, 02:12:05,VALID,1011.1,VALID,0,VALID,102.605,VALID,0,VALID,24.1812,VALID,323,VALID,0,
2011-04-10, 02:13:05,VALID,1011.08,VALID,0,VALID,102.65,VALID,0,VALID,24.1617,VALID,323,VALID,0,
2011-04-10, 02:14:05,VALID,1011.07,VALID,0,VALID,102.688,VALID,0,VALID,24.1404,VALID,323,VALID,0,
2011-04-10, 02:15:05,VALID,1011.07,VALID,0,VALID,102.719,VALID,0,VALID,24.1422,VALID,323,VALID,0,
2011-04-10, 02:16:05,VALID,1011.07,VALID,0,VALID,102.765,VALID,0,VALID,24.1422,VALID,323,VALID,0,
2011-04-10, 02:17:05,VALID,1011.06,VALID,0,VALID,102.795,VALID,0,VALID,24.1227,VALID,323,VALID,0,
2011-04-10, 02:18:05,VALID,1011.05,VALID,0,VALID,102.833,VALID,0,VALID,24.1014,VALID,323,VALID,0,
2011-04-10, 02:19:05,VALID,1011.09,VALID,0,VALID,102.91,VALID,0,VALID,24.0819,VALID,323,VALID,0,
2011-04-10, 02:20:05,VALID,1011.09,VALID,0,VALID,102.917,VALID,0,VALID,24.0837,VALID,323,VALID,0,
2011-04-10, 02:21:05,VALID,1011.07,VALID,0,VALID,102.963,VALID,0,VALID,24.0837,VALID,323,VALID,0,
2011-04-10, 02:22:05,VALID,1011.05,VALID,0,VALID,102.963,VALID,0,VALID,24.0624,VALID,323,VALID,0,
2011-04-10, 02:23:05,VALID,1011.06,VALID,0,VALID,102.955,VALID,0,VALID,24.0429,VALID,323,VALID,0,
2011-04-10, 02:24:05,VALID,1011.08,VALID,0,VALID,102.955,VALID,0,VALID,24.0643,VALID,323,VALID,0,
2011-04-10, 02:25:05,VALID,1011.08,VALID,0,VALID,103.001,VALID,0,VALID,24.0235,VALID,323,VALID,0,
2011-04-10, 02:26:05,VALID,1011.11,VALID,0,VALID,103.016,VALID,0,VALID,24.0058,VALID,323,VALID,0,
2011-04-10, 02:27:05,VALID,1011.1,VALID,0,VALID,103.1,VALID,0.105969,VALID,23.9845,VALID,323,VALID,0,
2011-04-10, 02:28:05,VALID,1011.14,VALID,0,VALID,103.161,VALID,0,VALID,23.965,VALID,323,VALID,0,
2011-04-10, 02:29:05,VALID,1011.12,VALID,0,VALID,103.199,VALID,0,VALID,23.9863,VALID,323,VALID,0,
2011-04-10, 02:30:05,VALID,1011.15,VALID,0,VALID,103.222,VALID,0.105969,VALID,23.9455,VALID,323,VALID,0,
2011-04-10, 02:31:05,VALID,1011.16,VALID,0,VALID,103.237,VALID,0,VALID,23.926,VALID,323,VALID,0,
2011-04-10, 02:32:05,VALID,1011.17,VALID,0,VALID,103.26,VALID,0,VALID,23.9065,VALID,323,VALID,0,
2011-04-10, 02:33:05,VALID,1011.17,VALID,0,VALID,103.26,VALID,0,VALID,23.8889,VALID,323,VALID,0,
2011-04-10, 02:34:05,VALID,1011.15,VALID,0,VALID,103.329,VALID,0,VALID,23.9084,VALID,323,VALID,0,
2011-04-10, 02:35:05,VALID,1011.18,VALID,0,VALID,103.337,VALID,0,VALID,23.8889,VALID,323,VALID,0,
2011-04-10, 02:36:05,VALID,1011.14,VALID,0,VALID,103.42,VALID,0,VALID,23.8694,VALID,323,VALID,0,
2011-04-10, 02:37:05,VALID,1011.14,VALID,0,VALID,103.489,VALID,0,VALID,23.8889,VALID,323,VALID,0,
2011-04-10, 02:38:05,VALID,1011.15,VALID,0,VALID,103.542,VALID,0,VALID,23.8889,VALID,323,VALID,0,
2011-04-10, 02:39:05,VALID,1011.16,VALID,0,VALID,103.619,VALID,0,VALID,23.8871,VALID,323,VALID,0,
2011-04-10, 02:40:05,VALID,1011.13,VALID,0,VALID,103.642,VALID,0,VALID,23.8676,VALID,323,VALID,0,
2011-04-10, 02:41:05,VALID,1011.12,VALID,0,VALID,103.626,VALID,0,VALID,23.8694,VALID,323,VALID,0,
2011-04-10, 02:42:05,VALID,1011.11,VALID,0,VALID,103.603,VALID,0,VALID,23.8499,VALID,323,VALID,0,
2011-04-10, 02:43:05,VALID,1011.14,VALID,0,VALID,103.634,VALID,0,VALID,23.8304,VALID,323,VALID,0,
2011-04-10, 02:44:05,VALID,1011.15,VALID,0,VALID,103.657,VALID,0,VALID,23.8304,VALID,323,VALID,0,
2011-04-10, 02:45:05,VALID,1011.14,VALID,0,VALID,103.695,VALID,0,VALID,23.8109,VALID,323,VALID,0,
2011-04-10, 02:46:05,VALID,1011.17,VALID,0,VALID,103.726,VALID,0,VALID,23.7896,VALID,323,VALID,0,
2011-04-10, 02:47:05,VALID,1011.18,VALID,0,VALID,103.764,VALID,0,VALID,23.7914,VALID,323,VALID,0,
2011-04-10, 02:48:05,VALID,1011.2,VALID,0,VALID,103.832,VALID,0,VALID,23.7914,VALID,323,VALID,0,
2011-04-10, 02:49:05,VALID,1011.18,VALID,0,VALID,103.863,VALID,0,VALID,23.7914,VALID,323,VALID,0,
2011-04-10, 02:50:05,VALID,1011.19,VALID,0,VALID,103.939,VALID,0,VALID,23.7701,VALID,323,VALID,0,
2011-04-10, 02:51:05,VALID,1011.19,VALID,0,VALID,103.962,VALID,0,VALID,23.7507,VALID,323,VALID,0,
2011-04-10, 02:52:05,VALID,1011.2,VALID,0,VALID,103.992,VALID,0,VALID,23.7914,VALID,323,VALID,0,
2011-04-10, 02:53:05,VALID,1011.16,VALID,0,VALID,104,VALID,0,VALID,23.7914,VALID,323,VALID,0,
2011-04-10, 02:54:05,VALID,1011.16,VALID,0,VALID,104,VALID,0,VALID,23.7701,VALID,323,VALID,0,
2011-04-10, 02:55:05,VALID,1011.17,VALID,0,VALID,104,VALID,0,VALID,23.7701,VALID,323,VALID,0,
2011-04-10, 02:56:05,VALID,1011.16,VALID,0,VALID,104,VALID,0,VALID,23.772,VALID,323,VALID,0,
2011-04-10, 02:57:05,VALID,1011.17,VALID,0,VALID,104,VALID,0,VALID,23.7701,VALID,323,VALID,0,
2011-04-10, 02:58:05,VALID,1011.17,VALID,0,VALID,104,VALID,0,VALID,23.772,VALID,323,VALID,0.114063,
2011-04-10, 02:59:05,VALID,1011.16,VALID,0,VALID,104,VALID,0,VALID,23.772,VALID,323,VALID,0,
2011-04-10, 03:00:05,VALID,1011.18,VALID,0,VALID,104,VALID,0,VALID,23.7312,VALID,323,VALID,0,
2011-04-10, 03:01:05,VALID,1011.17,VALID,0,VALID,104,VALID,0,VALID,23.7117,VALID,323,VALID,0,
2011-04-10, 03:02:05,VALID,1011.16,VALID,0,VALID,104,VALID,0,VALID,23.7117,VALID,323,VALID,0,
2011-04-10, 03:03:05,VALID,1011.16,VALID,0,VALID,104,VALID,0,VALID,23.7117,VALID,323,VALID,0,
2011-04-10, 03:04:05,VALID,1011.17,VALID,0,VALID,104,VALID,0,VALID,23.7117,VALID,323,VALID,0,
2011-04-10, 03:05:05,VALID,1011.18,VALID,0,VALID,104,VALID,0,VALID,23.733,VALID,323,VALID,0,
2011-04-10, 03:06:05,VALID,1011.16,VALID,0,VALID,104,VALID,0,VALID,23.7117,VALID,323,VALID,0,
2011-04-10, 03:07:05,VALID,1011.17,VALID,0,VALID,104,VALID,0,VALID,23.7117,VALID,323,VALID,0,
2011-04-10, 03:08:05,VALID,1011.16,VALID,0,VALID,104,VALID,0,VALID,23.733,VALID,323,VALID,0,
2011-04-10, 03:09:05,VALID,1011.17,VALID,0,VALID,104,VALID,0,VALID,23.7135,VALID,323,VALID,0,
2011-04-10, 03:10:05,VALID,1011.17,VALID,0,VALID,104,VALID,0,VALID,23.6922,VALID,323,VALID,0,
2011-04-10, 03:11:05,VALID,1011.16,VALID,0,VALID,104,VALID,0,VALID,23.6922,VALID,323,VALID,0,
2011-04-10, 03:12:05,VALID,1011.17,VALID,0,VALID,104,VALID,0.105969,VALID,23.694,VALID,323,VALID,0,
2011-04-10, 03:13:05,VALID,1011.19,VALID,0,VALID,104,VALID,0,VALID,23.6727,VALID,323,VALID,0,
2011-04-10, 03:14:05,VALID,1011.2,VALID,0,VALID,104,VALID,0,VALID,23.6727,VALID,323,VALID,0,
2011-04-10, 03:15:05,VALID,1011.19,VALID,0,VALID,104,VALID,0,VALID,23.7135,VALID,323,VALID,0,
2011-04-10, 03:16:05,VALID,1011.22,VALID,0,VALID,104,VALID,0,VALID,23.7135,VALID,323,VALID,0,
2011-04-10, 03:17:05,VALID,1011.2,VALID,0,VALID,104,VALID,0,VALID,23.7135,VALID,323,VALID,0,
2011-04-10, 03:18:05,VALID,1011.21,VALID,0,VALID,104,VALID,0,VALID,23.7135,VALID,323,VALID,0,
2011-04-10, 03:19:05,VALID,1011.18,VALID,0,VALID,104,VALID,0,VALID,23.733,VALID,323,VALID,0,
2011-04-10, 03:20:05,VALID,1011.19,VALID,0,VALID,104,VALID,0.105969,VALID,23.7117,VALID,323,VALID,0,
2011-04-10, 03:21:05,VALID,1011.17,VALID,0,VALID,104,VALID,0,VALID,23.7525,VALID,323,VALID,0,
2011-04-10, 03:22:05,VALID,1011.19,VALID,0,VALID,104,VALID,0,VALID,23.7525,VALID,323,VALID,0,
2011-04-10, 03:23:05,VALID,1011.17,VALID,0,VALID,104,VALID,0,VALID,23.7525,VALID,323,VALID,0,
2011-04-10, 03:24:05,VALID,1011.15,VALID,0,VALID,104,VALID,0,VALID,23.7525,VALID,323,VALID,0,
2011-04-10, 03:25:05,VALID,1011.17,VALID,0,VALID,104,VALID,0,VALID,23.7507,VALID,323,VALID,0,
2011-04-10, 03:26:05,VALID,1011.18,VALID,0,VALID,104,VALID,0,VALID,23.7525,VALID,323,VALID,0,
2011-04-10, 03:27:05,VALID,1011.2,VALID,0,VALID,104,VALID,0,VALID,23.772,VALID,323,VALID,0,
2011-04-10, 03:28:05,VALID,1011.19,VALID,0,VALID,104,VALID,0,VALID,23.7914,VALID,323,VALID,0,
2011-04-10, 03:29:05,VALID,1011.19,VALID,0,VALID,104,VALID,0,VALID,23.7914,VALID,323,VALID,0,
2011-04-10, 03:30:05,VALID,1011.17,VALID,0,VALID,104,VALID,0,VALID,23.7914,VALID,323,VALID,0,
2011-04-10, 03:31:05,VALID,1011.18,VALID,0,VALID,104,VALID,0,VALID,23.772,VALID,323,VALID,0,
2011-04-10, 03:32:05,VALID,1011.17,VALID,0,VALID,104,VALID,0,VALID,23.7525,VALID,323,VALID,0,
2011-04-10, 03:33:05,VALID,1011.2,VALID,0,VALID,104,VALID,0,VALID,23.733,VALID,323,VALID,0,
2011-04-10, 03:34:05,VALID,1011.19,VALID,0,VALID,104,VALID,0,VALID,23.7117,VALID,323,VALID,0,
2011-04-10, 03:35:05,VALID,1011.2,VALID,0,VALID,104,VALID,0.105969,VALID,23.7117,VALID,323,VALID,0,
2011-04-10, 03:36:05,VALID,1011.2,VALID,0,VALID,104,VALID,0,VALID,23.7312,VALID,323,VALID,0,
2011-04-10, 03:37:05,VALID,1011.15,VALID,0,VALID,104,VALID,0,VALID,23.7525,VALID,323,VALID,0,
2011-04-10, 03:38:05,VALID,1011.15,VALID,0,VALID,104,VALID,0,VALID,23.7525,VALID,323,VALID,0,
2011-04-10, 03:39:05,VALID,1011.13,VALID,0,VALID,104,VALID,0,VALID,23.7525,VALID,323,VALID,0,
2011-04-10, 03:40:05,VALID,1011.13,VALID,0,VALID,104,VALID,0,VALID,23.733,VALID,323,VALID,0,
2011-04-10, 03:41:05,VALID,1011.11,VALID,0,VALID,104,VALID,0,VALID,23.733,VALID,323,VALID,0,
2011-04-10, 03:42:05,VALID,1011.12,VALID,0,VALID,104,VALID,0,VALID,23.7117,VALID,323,VALID,0,
2011-04-10, 03:43:05,VALID,1011.14,VALID,0,VALID,104,VALID,0,VALID,23.7135,VALID,323,VALID,0,
2011-04-10, 03:44:05,VALID,1011.15,VALID,0,VALID,104,VALID,0,VALID,23.6745,VALID,323,VALID,0,
2011-04-10, 03:45:05,VALID,1011.16,VALID,0,VALID,104,VALID,0,VALID,23.6745,VALID,323,VALID,0,
2011-04-10, 03:46:05,VALID,1011.14,VALID,0,VALID,104,VALID,0,VALID,23.655,VALID,323,VALID,0,
2011-04-10, 03:47:05,VALID,1011.16,VALID,0,VALID,104,VALID,0,VALID,23.6143,VALID,323,VALID,0.00546875,
2011-04-10, 03:48:05,VALID,1011.16,VALID,0,VALID,104,VALID,0,VALID,23.6161,VALID,323,VALID,0.0929687,
2011-04-10, 03:49:05,VALID,1011.17,VALID,0,VALID,104,VALID,0,VALID,23.5966,VALID,323,VALID,0,
2011-04-10, 03:50:05,VALID,1011.17,VALID,0,VALID,104,VALID,0,VALID,23.5576,VALID,323,VALID,0,
2011-04-10, 03:51:05,VALID,1011.17,VALID,0,VALID,104,VALID,0,VALID,23.5576,VALID,323,VALID,0,
2011-04-10, 03:52:05,VALID,1011.16,VALID,0,VALID,104,VALID,0,VALID,23.5381,VALID,323,VALID,0,
2011-04-10, 03:53:05,VALID,1011.15,VALID,0,VALID,104,VALID,0,VALID,23.5576,VALID,323,VALID,0,
2011-04-10, 03:54:05,VALID,1011.16,VALID,0,VALID,104,VALID,0,VALID,23.5381,VALID,323,VALID,0,
2011-04-10, 03:55:05,VALID,1011.13,VALID,0,VALID,104,VALID,0,VALID,23.5381,VALID,323,VALID,0,
2011-04-10, 03:56:05,VALID,1011.13,VALID,0,VALID,104,VALID,0,VALID,23.4974,VALID,323,VALID,0,
2011-04-10, 03:57:05,VALID,1011.11,VALID,0,VALID,104,VALID,0,VALID,23.4974,VALID,323,VALID,0,
2011-04-10, 03:58:05,VALID,1011.13,VALID,0,VALID,104,VALID,0,VALID,23.5169,VALID,323,VALID,0,
2011-04-10, 03:59:05,VALID,1011.13,VALID,0,VALID,104,VALID,0,VALID,23.5186,VALID,323,VALID,0,
2011-04-10, 04:00:05,VALID,1011.12,VALID,0,VALID,104,VALID,0.105969,VALID,23.4974,VALID,323,VALID,0,
2011-04-10, 04:01:05,VALID,1011.13,VALID,0,VALID,104,VALID,0,VALID,23.4974,VALID,323,VALID,0,